Location: Unspecified
(17.6330°N, 0.0000°E)
Time: 10:08:07
(UTC+00:00)

A-11 Canister half - Pass Details

Date: 26 June 2019
Orbit: 1514 x 1685 km, 47.2° (Epoch: 18 July)

Event Time Altitude Azimuth Distance (km) Brightness Sun altitude
Rises 09:51:15 0° 267° (W) 4,928 11.3 58.7°
Reaches altitude 10° 09:55:31 10° 282° (WNW) 3,928 11.0 59.7°
Maximum altitude 10:02:45 22° 329° (NNW) 3,060 10.8 61.4°
Drops below altitude 10° 10:09:54 10° 16° (NNE) 3,850 11.5 63.0°
Sets 10:14:05 0° 31° (NNE) 4,806 11.9 63.9°
